Regional Weather Roundup
Issued by NWS

Home | Current Version | Previous Version | Graphics & Text | Print | Product List | Glossary On
Versions: 1 2 3 4 5 6 7 8 9 10 11 12 13 14 15 16 17 18 19 20 21 22 23 24 25 26 27 28 29 30 31 32 33 34 35 36 37 38 39 40 41 42 43 44 45 46 47 48 49 50
000
ASUS45 KCYS 272210
RWRWY

WYOMING REGIONAL WEATHER ROUNDUP
NATIONAL WEATHER SERVICE CHEYENNE WY
400 PM MDT THU AUG 27 2015

NOTE:  "FAIR" INDICATES FEW OR NO CLOUDS BELOW 12,000 FEET
WITH NO SIGNIFICANT WEATHER AND/OR OBSTRUCTIONS TO VISIBILITY.

WYZ001-272300-
YELLOWSTONE NATIONAL PARK

CITY           SKY/WX    TMP DP  RH WIND       PRES   REMARKS
LK YELLOWSTONE   N/A     58  47  66 CALM      30.38F
W YELLOWSTONE  NOT AVBL

$$
WYZ002>013-054>058-071-098>099-272300-
NORTHERN WYOMING

CITY           SKY/WX    TMP DP  RH WIND       PRES   REMARKS
JACKSON        FAIR      70  55  60 SE5       30.29F
CODY           FAIR      75  45  33 N13       30.16S
GREYBULL       FAIR      82  49  31 S6        30.08F
WORLAND        FAIR      78  57  48 NE3       30.10F
SHERIDAN       FAIR      89  45  21 NW14      30.04F
BUFFALO        FAIR      83  43  24 N13       30.11F
GILLETTE       FAIR      82  47  29 NW5       30.07F
HULETT         FAIR      81  50  34 W6        30.07F
NEWCASTLE      FAIR      82  41  23 NW8       30.06F

$$
WYZ014>020-022>026-101>103-272300-
CENTRAL WYOMING

CITY           SKY/WX    TMP DP  RH WIND       PRES   REMARKS
BIG PINEY      FAIR      80  37  21 N20G25    30.29F
PINEDALE       FAIR      75  43  31 NW15G28   30.30F
DUBOIS         FAIR      70  43  37 NW12G17   30.29S
LANDER         FAIR      76  47  35 N9        30.18F
RIVERTON       FAIR      76  49  38 VRB5      30.18F
CASPER         PTSUNNY   79  45  29 MISG      30.14F
DOUGLAS        PTSUNNY   80  45  28 N12G22    30.12F

$$
WYZ021-027>030-104>119-272300-
SOUTHERN WYOMING

CITY           SKY/WX    TMP DP  RH WIND       PRES   REMARKS
EVANSTON       FAIR      77  36  22 N10G17    30.34F
KEMMERER       FAIR     N/A N/A N/A NW15G32   30.33F
FORT BRIDGER   PTCLDY    77  37  24 NW16G28   30.35F
ROCK SPRINGS   FAIR      75  40  28 NW13G22   30.26F
DIXON          MOCLDY    80  45  28 W13G23    30.26F
RAWLINS        PTSUNNY   70  56  61 E6        30.26F
SARATOGA       FAIR      68  54  60 E7        30.29F
LARAMIE        CLOUDY    68  49  50 NW13      30.28F
CHEYENNE       CLOUDY    74  48  39 N15G21    30.19S
TORRINGTON     PTSUNNY   80  52  37 N12       30.05S
PINE BLUFFS    MOCLDY    79  52  38 N15G24    30.12S

$$


USA.gov is the U.S. government's official web portal to all federal, state and local government web resources and services.